Regional Weather Roundup
Issued by NWS

Home | Current Version | Previous Version | Text Only | Print | Product List | Glossary On
Versions: 1 2 3 4 5 6 7 8 9 10 11 12 13 14 15 16 17 18 19 20 21 22 23 24 25 26 27 28 29 30 31 32 33 34 35 36 37 38 39 40 41 42 43 44 45 46 47 48 49 50
085
ASUS44 KLIX 211301
RWRLA
LOUISIANA WEATHER ROUNDUP
NATIONAL WEATHER SERVICE NEW ORLEANS LA
800 AM CDT THU AUG 21 2014

NOTE: "FAIR" INDICATES FEW OR NO CLOUDS BELOW 12,000 FEET WITH NO
      SIGNIFICANT WEATHER AND/OR OBSTRUCTIONS TO VISIBILITY.
      SKY/WX - SKY CONDITION AND SIGNIFICANT WEATHER.
      TMP - AIR TEMPERATURE.    DP   - DEWPOINT TEMPERATURE.
      RH  - RELATIVE HUMIDITY.  PRES - PRESSURE.
      HX  - HEAT INDEX.         WCI  - WIND CHILL INDEX.

*  THESE STATIONS ARE NOT NWS OR FAA STATIONS AND ARE NOT UNDER
   NWS QUALITY CONTROL.

LAZ040-048-061>063-065-066-069-211400-
SOUTHEAST LOUISIANA

CITY           SKY/WX    TMP DP  RH WIND       PRES   REMARKS
N.O. AUDUBON   NOT AVBL
N.O. INTL ARPT PTSUNNY   83  76  79 CALM      30.13R
N.O. LAKEFRONT SUNNY     84  77  79 CALM      30.14R
N.O. DOWNTOWN* FAIR      84  73  70 CALM      30.14R
SLIDELL        SUNNY     78  74  87 CALM      30.13R
BATON ROUGE    PTSUNNY   77  73  87 CALM      30.12S
BOOTHVILLE     SUNNY     85  78  80 E3        30.14R HX  96
BELLE CHASSE   PTSUNNY   82  77  84 CALM      30.13R
BOGALUSA*      CLOUDY    76  73  90 CALM      30.16R
GALLIANO*      NOT AVBL
NEW ROADS*     FAIR      76  75  96 CALM      30.12S
GONZALES*      FAIR      77  77  99 CALM      30.12R
HAMMOND*       NOT AVBL
HOUMA*         SUNNY     79  75  89 CALM      30.12R
PORT FOURCHON* SUNNY     86  75  70 SW5       30.15R HX  95

$$

LAZ041-044-053-054-211400-
SOUTHWEST LOUISIANA

CITY           SKY/WX    TMP DP  RH WIND       PRES   REMARKS
LAKE CHARLES   NOT AVBL
LAFAYETTE      MOSUNNY   79  76  90 CALM      30.11R
PATTERSON      MOSUNNY  N/A N/A N/A MISG        N/A
SALT POINT       N/A     85  80  85 CALM      30.11R HX  99
NEW IBERIA     MOSUNNY   81  76  84 E5        30.12R
CHENAULT AIRPK PTSUNNY   79  77  94 CALM      30.11R

$$

LAZ027-028-211400-
CENTRAL LOUISIANA

CITY           SKY/WX    TMP DP  RH WIND       PRES   REMARKS
FORT POLK      PTSUNNY   77  76  96 CALM      30.11R
ALEXANDRIA INT CLOUDY    77  75  93 SE7       30.10R
ALEXANDRIA     CLOUDY    78  74  87 CALM      30.12R

$$

LAZ001-002-211400-
NORTHWEST LOUISIANA

CITY           SKY/WX    TMP DP  RH WIND       PRES   REMARKS
SHREVEPORT     CLOUDY    78  75  90 S6        30.09R
BARKSDALE AFB  NOT AVBL
DTN SHREVEPORT CLOUDY    79  75  87 S8        30.09S

$$

LAZ014-016-211400-
NORTHEAST LOUISIANA

CITY           SKY/WX    TMP DP  RH WIND       PRES   REMARKS
MONROE         PTSUNNY   76  73  91 CALM      30.13R
TALLULAH       MOSUNNY   78  74  87 CALM      30.13R

$$




USA.gov is the U.S. government's official web portal to all federal, state and local government web resources and services.